Home   Weather   Clearwater   Past weeks

Flag for USA Past Weather in Clearwater, Florida, USA — Yesterday and Last 2 Weeks

Now
71 °F

Clear.


Feels Like: 68 °F
Forecast: 71 / 83 °F
Wind: No wind

Location: St. Petersburg / Clearwater International Airport

Current Time: Apr 23, 2017 at 1:55:50 am

Latest Report: Apr 23, 2017 at 12:53 am


Visibility: 10 mi

Pressure: 29.91 "Hg

Humidity: 90%

Dew Point: 68 °F

Location of ClearwaterLocation

Past Weather in Clearwater — Graph

°F

Clearwater Temperature Yesterday

Maximum temperature yesterday: 81 °F (at 12:53 pm)
Minimum temperature yesterday: 65 °F (at 4:53 am)
Average temperature yesterday: 73 °F

High & Low Weather Summary for the Past Weeks

 TemperatureHumidityPressure
High88 °F (Apr 19, 3:53 pm)90% (Apr 17, 6:53 am)30.25 "Hg (Apr 17, 6:53 am)
Low59 °F (Apr 8, 1:53 am)19% (Apr 8, 12:53 pm)29.88 "Hg (Apr 22, 7:53 pm)
Average74 °F57%30.12 "Hg
* Reported Apr 7 11:53 pm — Apr 22 11:53 pm, Clearwater, Weather by CustomWeather, © 2017

Note: Actual official high and low records may vary slightly from our data, if they occured in-between our weather recording intervals... More about our weather records

Advertising

Clearwater Weather History for the Previous 24 Hours

Scroll right to see more
 ConditionsComfort  
Time TempWeatherWind HumidityBarometerVisibility
11:53 pm
Sat, Apr 22
71 °FClear.No wind90%29.91 "Hg10 mi
10:53 pm71 °FPassing clouds.No wind90%29.90 "Hg10 mi
9:53 pm73 °FClear.No wind84%29.89 "Hg10 mi
8:53 pm73 °FClear.3 mph81%29.88 "Hg10 mi
7:53 pm77 °FSunny.No wind71%29.88 "Hg10 mi
6:53 pm79 °FSunny.3 mph67%29.88 "Hg10 mi
5:53 pm78 °FPartly sunny.5 mph71%29.89 "Hg10 mi
4:53 pm76 °FPartly sunny.5 mph80%29.90 "Hg10 mi
3:53 pm73 °FHeavy rain. Mostly cloudy.13 mph84%29.92 "Hg5 mi
3:23 pm73 °FRain. Cloudy.15 mph84%29.93 "Hg5 mi
1:53 pm81 °FBroken clouds.6 mph60%29.94 "Hg10 mi
12:53 pm81 °FMore clouds than sun.8 mph56%29.96 "Hg10 mi
11:53 am79 °FCloudy.8 mph62%29.98 "Hg10 mi
10:53 am80 °FMore clouds than sun.9 mph60%29.98 "Hg10 mi
9:53 am77 °FPassing clouds.8 mph66%29.96 "Hg10 mi
8:53 am73 °FPartly sunny.7 mph74%29.97 "Hg10 mi
7:53 am71 °FSunny.5 mph81%29.96 "Hg10 mi
6:53 am67 °FClear.6 mph85%29.94 "Hg10 mi
5:53 am67 °FClear.6 mph85%29.93 "Hg10 mi
4:53 am65 °FClear.5 mph87%29.93 "Hg10 mi
3:53 am66 °FClear.5 mph87%29.93 "Hg10 mi
2:53 am67 °FClear.3 mph87%29.95 "Hg10 mi
1:53 am70 °FClear.3 mph79%29.96 "Hg10 mi
Weather by CustomWeather, © 2017

See weather overviewHow to use our weather pages